Other Public Products
Issued by NWS Grand Forks, ND

Home | Current Version | Previous Version | Graphics & Text | Print | Product List | Glossary On
Versions: 1 2 3 4 5 6 7 8 9 10 11 12 13 14 15 16 17 18 19 20 21 22 23 24 25 26 27 28 29 30 31 32 33 34 35 36 37 38 39 40 41 42 43 44 45 46 47 48 49 50
000
FPUS83 KFGF 171510
OPUFGF
PRAIRIE TO PINES WEATHER ROUNDUP
NATIONAL WEATHER SERVICE EASTERN NORTH DAKOTA/GRAND FORKS ND
1000 AM CDT WED SEP 17 2014

 **SATELLITE DATA USED TO AUGMENT SKY COVER AT AUTOMATED STATIONS**
 *****  WEATHER ACROSS EASTERN NORTH DAKOTA  *****

CITY           SKY/WX    TMP DP  RH WIND       PRES   REMARKS
GRAND FORKS    MOSUNNY   54  49  83 N9        29.97R
GRAND FORKS AF MOSUNNY   53  50  88 N15       29.98R
GRAND CITY NWS NOT AVBL
BUXTON         NOT AVBL
DEVILS LAKE    SUNNY     52  43  71 NE14      29.98R
FARGO          SUNNY     60  49  66 N3        29.94R
WAHPETON ARPT  SUNNY     55  48  76 N7        29.95R
$$

 *****  WEATHER ACROSS CENTRAL AND WESTERN NORTH DAKOTA  *****

CITY           SKY/WX    TMP DP  RH WIND       PRES   REMARKS
JAMESTOWN      SUNNY     58  49  72 NE7       29.97R
BISMARCK       SUNNY     53  46  77 CALM      29.98R
MINOT          SUNNY     54  45  71 S5        29.98R
MINOT AFB      SUNNY     54  47  77 E2        29.98R
GARRISON         N/A     58  47  66 VRB3      29.97R
WILLISTON      SUNNY     54  43  66 CALM      29.96S
DICKINSON      MOSUNNY   58  49  72 SE5       29.96R
HETTINGER      SUNNY     59  50  72 CALM      29.98S
$$

 *****  OTHER OBSERVATIONS NORTHEAST NORTH DAKOTA  *****

CITY           SKY/WX    TMP DP  RH WIND       PRES   REMARKS
WALHALLA         N/A     46  46 100 NE10      30.04R
LANGDON        CLOUDY    46  45  93 NE14      30.01R
CAVALIER       CLOUDY    46  45  93 N14       30.02R FOG
GRAFTON        CLOUDY    46  46 100 N17       30.00R
CANDO          CLOUDY    48  46  93 NE12      30.01S
FORT TOTTEN      N/A     55  47  73 NE7       29.95
ROLLA          CLOUDY    45  45 100 NE12      30.03S
RUGBY          FAIR      50  46  87 E14       29.99R
 ***** THE ABOVE OBSERVATIONS ARE NON NWS ARE NOT QUALITY
        CONTROLLED AND MAY MIS-REPORT RAIN FOR SNOW...
$$

 *****  OTHER OBSERVATIONS SOUTHEAST NORTH DAKOTA *****

CITY           SKY/WX    TMP DP  RH WIND       PRES   REMARKS
COOPERSTOWN    NOT AVBL
VALLEY CITY    FAIR      57  52  82 N6        29.97R
OAKES            N/A     59  55  88 NW6       29.96R
GWINNER        SUNNY     61  52  72 N9        29.97R
SHEYENNE NWR     N/A     59  49  70 NE8       29.95S
BUFFALO        NOT AVBL
WYNDMERE       NOT AVBL
 ***** THE ABOVE OBSERVATIONS ARE NON NWS ARE NOT QUALITY
       CONTROLLED AND MAY MIS-REPORT RAIN FOR SNOW...
$$

  *****  WEATHER ACROSS NORTHERN MINNESOTA  *****

CITY           SKY/WX    TMP DP  RH WIND       PRES   REMARKS
FLAG ISLAND    CLOUDY    45  39  81 NE14      30.02R
WARROAD        CLOUDY    48  45  87 NE13      30.01R
ROSEAU         CLOUDY    50  45  81 NE13      30.00R
HALLOCK        CLOUDY    52  48  87 N13       30.00R
THF RVR FALLS  SUNNY     57  45  62 N12       29.96R
HALSTAD          N/A     61  46  59 CALM        N/A
FOSSTON        SUNNY     57  48  72 CALM      29.95R
BAUDETTE       MOSUNNY   50  44  80 NE9       29.99R
WASKISH        PTSUNNY   52  48  87 CALM      29.96R
CROOKSTON      SUNNY     54  46  76 N8        29.96S
$$
  *****  WEATHER ACROSS CENTRAL AND WEST MINNESOTA  *****

CITY           SKY/WX    TMP DP  RH WIND       PRES   REMARKS
BEMIDJI        SUNNY     57  47  69 SW3       29.94S
PARK RAPIDS    SUNNY     57  48  72 N7        29.95R
WADENA         SUNNY     55  50  82 CALM      29.94S
DETROIT LAKES  SUNNY     57  52  82 NE3       29.96R
MOORHEAD       SUNNY     57  54  88 NE3       29.95S
FERGUS FALLS   SUNNY     57  50  77 CALM      29.94S
ELBOW LAKE     FAIR      59  53  80 CALM      29.94R
MORRIS MN      SUNNY     63  54  72 CALM      29.93S
STAPLES        SUNNY     55  48  76 CALM      29.94S
WHEATON        SUNNY     55  52  88 NW5       29.96S
$$
  *****  WEATHER ELSEWHERE ACROSS MINNESOTA  *****

CITY           SKY/WX    TMP DP  RH WIND       PRES   REMARKS
DULUTH         MOSUNNY   59  45  59 NW7       29.94S
INTRNTL FALLS  CLOUDY    50  43  77 NE12      29.98R
ELY            PTSUNNY   54  46  76 N5        29.94R
CLOQUET        SUNNY     57  46  67 NW5       29.94S
BRAINERD       SUNNY     57  49  74 CALM      29.95R
HIBBING        MOSUNNY   58  47  66 CALM      29.93S
ALEXANDRIA     SUNNY     61  52  72 W3        29.95S
SAINT CLOUD    SUNNY     63  52  67 CALM      29.95R
MINNEAPOLIS    MOSUNNY   61  49  64 SW6       29.95S
$$

  *****  WEATHER ACROSS SOUTH DAKOTA  *****

CITY           SKY/WX    TMP DP  RH WIND       PRES   REMARKS
SIOUX FALLS    MOSUNNY   62  53  72 CALM      29.93S
BROOKINGS      NOT AVBL
WATERTOWN      SUNNY     60  53  77 CALM      29.94R
HURON          SUNNY     58  52  80 N3        29.94R
SISSETON         N/A     62  55  77 NE8       29.93R
ABERDEEN       SUNNY     54  52  93 N5        29.96R
MITCHELL       SUNNY     59  54  83 CALM      29.94R
PIERRE         SUNNY     61  56  83 CALM      29.92R
MOBRIDGE       SUNNY     60  53  77 CALM      29.94R
RAPID CITY     MOSUNNY   69  44  40 N7        29.97S
$$

  *****  SOME WEATHER IN NEARBY STATES *****

CITY           SKY/WX    TMP DP  RH WIND       PRES   REMARKS
GLASGOW MT     PTSUNNY   56  41  57 SE9       29.91R
GREAT FALLS MT MOSUNNY   65  48  54 CALM      29.91R
CHEYENNE WY    SUNNY     68  39  34 CALM      30.14S
SCOTTSBLUFF NE SUNNY     64  49  57 NW10      30.01S
OMAHA NE       MOSUNNY   65  56  72 S3        29.93F
DES MOINES IA  PTSUNNY   62  55  77 SE5       29.97R
DAVENPORT IA   CLOUDY    61  51  70 S6        30.02S
CHICAGO IL     MOSUNNY   60  45  57 VRB5      30.03F
EAU CLAIRE WI  PTSUNNY   57  49  74 S8        29.97F
LA CROSSE WI   PTSUNNY   57  50  77 SE6       30.00S
$$

  *****  SOME NATIONAL WEATHER *****

CITY           SKY/WX    TMP DP  RH WIND       PRES   REMARKS
LA GUARDIA NY  MOSUNNY   66  46  48 NE6       30.05F
RALEIGH NC     PTSUNNY   73  61  65 E10       30.00S
ATLANTA GA     SUNNY     77  62  59 N7        29.99F
NEW ORLEANS LA PTSUNNY   83  73  72 N7        29.98S
OKLAHOMA CITY  PTSUNNY   79  69  71 S10       29.96S
ALBUQUERQUE NM LGT RAIN  62  58  86 W3        30.19R
SALT LAKE CITY MOSUNNY   75  44  33 SE13      29.98R
LOS ANGELES CA MOSUNNY   77  65  66 CALM      29.74R
BOISE ID       CLOUDY    70  42  36 CALM      29.86R
SEATTLE WA     PTSUNNY   60  55  83 NW3       29.79F
$$

*** WEATHER ACROSS MANITOBA...SASKATCHEWAN AND ONTARIO ***
                ***ONTARIO***

CITY           SKY/WX    TMP DP  RH WIND       PRES   REMARKS
GERALDTON      PTSUNNY   34  32  93 N6        30.06R
THUNDER BAY    DRIZZLE   41  39  93 NE9       30.02S
SIOUX LOOKOUT  CLOUDY    37  37 100 E5        30.07R
TORONTO        MOSUNNY   63  46  55 SW13      30.01F
BIG TROUT LK   CLOUDY    36  21  55 NW10G17   30.11R
PICKLE LAKE    MOSUNNY   36  30  80 VRB2      30.10R
DRYDEN         CLOUDY    39  37  93 NE12      30.05R
KENORA         NOT AVBL
$$
                *** MANITOBA***

CITY           SKY/WX    TMP DP  RH WIND       PRES   REMARKS
BRANDON        NOT AVBL
DAUPHIN        CLOUDY    41  39  93 E6        30.12R
ISLAND LAKE    MOSUNNY   41  27  56 NW3       30.17R
PILOT MOUND      N/A     45  41  87 NE12        N/A
THE PAS        PTSUNNY   37  30  75 E6        30.17R
THOMPSON       MOSUNNY   36  25  64 SE2       30.20S
WINNIPEG       CLOUDY    43  39  87 NE13      30.09R
CHURCHILL      CLOUDY    32  23  69 NW14G22   30.14S WCI  22
GILLAM         FLURRIES N/A N/A N/A NW14        N/A
$$
                ***SASKATCHEWAN***

CITY           SKY/WX    TMP DP  RH WIND       PRES   REMARKS
ESTEVAN        NOT AVBL
KINDERSLEY     NOT AVBL
LLOYDMINSTER   FOG       45  45 100 SE17      29.89S VSB 1
PRINCE ALBERT  DRIZZLE   41  41 100 E14       30.04S FOG
REGINA         CLOUDY    46  46 100 E13G18    29.98R
YORKTON        CLOUDY    43  39  87 SE14      30.07R



USA.gov is the U.S. government's official web portal to all federal, state and local government web resources and services.